Location: Winthrop
(48.4780°N, 120.1850°W)
Time: 18:02:04
(UTC-07:00)

Explorer 7 - Pass Details

Date: 02 February 2023
Orbit: 478 x 657 km, 50.3° (Epoch: 30 March)

Event Time Altitude Azimuth Distance (km) Brightness Sun altitude
Rises 12:52:54 0° 239° (WSW) 2,686 10.9 24.3°
Reaches altitude 10° 12:55:04 10° 236° (WSW) 1,826 10.2 24.2°
Maximum altitude 12:59:12 65° 155° (SSE) 638 7.9 24.1°
Drops below altitude 10° 13:03:37 10° 74° (ENE) 1,951 9.4 23.9°
Sets 13:06:00 0° 72° (ENE) 2,887 10.2 23.8°
